Lid_Strength_Index
0 1 1 0 0 1 0 -0 -0 -1 -1 -0 -1 -1 -1 -0 -0 -0 0 0 1 1
1 1 1 0 0 0 -0 -0 -1 -1 -1 -0 -0 -1 -1 0 0 -0 0 0 0 1
1 0 0 0 0 0 -0 -0 -1 -1 0 -0 -0 -0 -1 -0 -0 0 0 0 0 0
1 1 0 1 0 0 -0 -0 -0 -0 0 0 0 -0 -0 -1 -0 0 0 -0 0 0
1 1 1 1 0 0 0 -0 -0 -0 0 0 0 -0 0 0 0 0 1 0 -0 0
1 1 1 1 0 0 0 0 0 0 1 0 0 0 -0 -0 2 -0 0 0 0 1
1 1 1 1 1 0 0 0 0 0 0 0 0 0 0 1 2 0 0 -0 -0 0
1 1 1 1 1 0 0 0 0 1 1 0 0 0 1 2 1 0 0 -0 -0 1
1 1 1 1 1 1 1 1 1 1 1 1 1 5 4 2 2 1 0 1 0 2
1 2 1 1 1 1 1 1 1 1 1 1 1 6 6 6 1 1 0 0 0 1
2 2 1 1 1 1 1 1 1 1 1 1 1 7 8 6 2 0 0 -0 0 0
2 2 2 2 2 1 1 1 1 1 1 1 3 8 9 7 3 1 0 -0 0 1
1 2 2 2 2 1 1 1 1 1 1 2 3 10 10 9 5 2 1 0 4 6
1 1 1 1 1 1 1 1 2 2 2 2 3 8 11 10 6 3 1 2 2 5